Home   Weather   London   Past weeks

Flag for Canada Past Weather in London, Ontario, Canada — Yesterday and Last 2 Weeks

Now
46 °F

Mostly cloudy.


Feels Like: 40 °F
Forecast: 26 / 52 °F
Wind: 16 mph from West

Location: London Weather Station

Current Time: Feb 25, 2017 at 6:29:06 am

Latest Report: Feb 25, 2017 at 5:53 am


Visibility: 10 mi

Pressure: 29.46 "Hg

Humidity: 87%

Dew Point: 43 °F

Location of LondonLocation

Past Weather in London — Graph

°F

London Temperature Yesterday

Maximum temperature yesterday: 63 °F (at 4:00 pm)
Minimum temperature yesterday: 37 °F (at 12:00 am)
Average temperature yesterday: 47 °F

High & Low Weather Summary for the Past Weeks

 TemperatureHumidityPressure
High64 °F (Feb 23, 10:29 am)100% (Feb 12, 7:08 am)30.36 "Hg (Feb 12, 7:08 am)
Low10 °F (Feb 17, 12:00 am)49% (Feb 23, 1:00 pm)29.43 "Hg (Feb 25, 3:44 am)
Average36 °F84%29.84 "Hg
* Reported Feb 10 5:00 am — Feb 25 5:00 am, London, Weather by CustomWeather, © 2017

Note: Actual official high and low records may vary slightly from our data, if they occured in-between our weather recording intervals... More about our weather records

Advertising

London Weather History for the Previous 24 Hours

Scroll right to see more
 ConditionsComfort  
Time TempWeatherWind HumidityBarometerVisibility
5:00 am
Sat, Feb 25
50 °FMostly cloudy.14 mph100%29.44 "Hg12 mi
4:46 am50 °FMostly cloudy.12 mph100%29.43 "Hg12 mi
4:28 am50 °FFog.10 mph100%29.44 "Hg2 mi
4:04 am50 °FFog.13 mph100%29.44 "Hg1 mi
3:44 am50 °FFog.10 mph100%29.43 "Hg2 mi
3:00 am50 °FLow clouds.12 mph100%29.45 "Hg12 mi
2:11 am52 °FSprinkles. Mostly cloudy.17 mph100%29.46 "Hg15 mi
2:00 am54 °FRain showers. Fog.15 mph94%29.47 "Hg6 mi
1:34 am54 °FRain showers. Fog.12 mph94%29.48 "Hg6 mi
1:13 am54 °FThunderstorms. Mostly cloudy.16 mph94%29.49 "Hg7 mi
1:00 am55 °FThunderstorms. Mostly cloudy.14 mph88%29.50 "Hg12 mi
12:38 am57 °FThunderstorms. Overcast.21 mph82%29.48 "Hg10 mi
12:23 am55 °FThunderstorms. Overcast.22 mph88%29.47 "Hg12 mi
12:00 am55 °FSprinkles. Overcast.22 mph88%29.44 "Hg15 mi
11:00 pm
Fri, Feb 24
55 °FSprinkles. Overcast.14 mph88%29.47 "Hg15 mi
10:12 pm50 °FThunderstorms. Mostly cloudy.9 mph94%29.52 "Hg10 mi
10:00 pm50 °FSprinkles. Overcast.10 mph94%29.52 "Hg10 mi
9:26 pm48 °FSprinkles. Mostly cloudy.9 mph94%29.53 "Hg12 mi
9:00 pm48 °FMostly cloudy.13 mph94%29.51 "Hg8 mi
8:16 pm48 °FSprinkles. Mostly cloudy.9 mph94%29.54 "Hg8 mi
8:00 pm50 °FMostly cloudy.13 mph94%29.54 "Hg8 mi
7:00 pm52 °FOvercast.10 mph94%29.56 "Hg15 mi
6:19 pm54 °FOvercast.13 mph94%29.56 "Hg15 mi
5:51 pm55 °FThunderstorms. Fog.13 mph88%29.62 "Hg3 mi
5:29 pm55 °FThunderstorms. Fog.8 mph94%29.64 "Hg1 mi
5:19 pm55 °FThunderstorms. Cloudy.9 mph94%29.59 "Hg10 mi
5:00 pm57 °FSprinkles. Mostly cloudy.9 mph88%29.59 "Hg12 mi
4:00 pm63 °FMostly cloudy.9 mph77%29.56 "Hg15 mi
3:00 pm61 °FPartly sunny.9 mph83%29.60 "Hg15 mi
2:00 pm57 °FPartly sunny.12 mph88%29.60 "Hg12 mi
1:00 pm54 °FFog.10 mph94%29.62 "Hg6 mi
12:00 pm48 °FFog.9 mph100%29.66 "Hg3 mi
11:25 am48 °FFog.8 mph94%29.69 "Hg3 mi
11:11 am46 °FFog.8 mph100%29.69 "Hg3 mi
11:00 am46 °FFog.5 mph93%29.69 "Hg2 mi
10:00 am43 °FFog.13 mph100%29.68 "Hg2 mi
9:31 am43 °FFog.13 mph100%29.69 "Hg2 mi
9:00 am41 °FFog.13 mph100%29.70 "Hg2 mi
8:23 am41 °FFog.16 mph93%29.70 "Hg2 mi
8:00 am39 °FSprinkles. Fog.20 mph100%29.70 "Hg2 mi
7:32 am39 °FSprinkles. Fog.13 mph93%29.75 "Hg3 mi
7:00 am39 °FSprinkles. Fog.13 mph93%29.74 "Hg6 mi
6:00 am39 °FSprinkles. Fog.16 mph93%29.76 "Hg3 mi
Weather by CustomWeather, © 2017

See weather overviewHow to use our weather pages